Weather History for Dubai, United Arab Emirates

Change the Weather History Date:

Saturday, January 19, 2013

  Actual Average Record
Temperature  
Mean Temperature 63 °F -  
Max Temperature 70 °F 75 °F 82 °F (2000)
Min Temperature 56 °F 59 °F 53 °F (1998)
Degree Days  
Heating Degree Days 2    
Growing Degree Days 13 (Base 50)    
Moisture  
Dew Point 51 °F    
Average Humidity 60    
Maximum Humidity 77    
Minimum Humidity 40    
Precipitation  
Precipitation 0.00 in 0.04 in - ()
Sea Level Pressure  
Sea Level Pressure 30.17 in    
Wind  
Wind Speed 5 mph ()    
Max Wind Speed 10 mph    
Max Gust Speed -    
Visibility 6.0 miles    
Events      
Averages and records for this station are not official NWS values.
T = Trace of Precipitation, MM = Missing Value Source: Averaged Metar Reports

Daily Weather History Graph

Daily Weather History Graph

Search for Another Location

Airport:

Trip Planner

Search our weather history database for the weather conditions in past years. The results will help you decide how hot, cold, wet, or windy it might be!

Date:

Astronomy

Jan. 19, 2013 Rise Set
Actual Time 7:05 AM GST 5:53 PM GST
Civil Twilight 6:41 AM GST 6:17 PM GST
Nautical Twilight 6:13 AM GST 6:45 PM GST
Astronomical Twilight 5:45 AM GST 7:13 PM GST
Moon 11:57 AM GST (1/19) 12:27 AM GST (1/19)
Length of Visible Light 11h 36m
Length of Day
10h 47m
First Quarter, 53% of the Moon is Illuminated
Jan 19
First Quarter
Jan 27
Full
Feb 3
Last Quarter
Feb 10
New
Feb 18
First Quarter

Hourly Weather History & Observations

Time (GST) Temp. Dew Point Humidity Pressure Visibility Wind Dir Wind Speed Gust Speed Precip Events Conditions
12:00 AM 66.2 °F 51.8 °F 60% 30.18 in - SSE 3.5 mph - N/A   Clear
1:00 AM 63 °F 51 °F 55% 30.18 in 6 mi SSE 6.9 mph - -  
1:00 AM 62.6 °F 51.8 °F 68% 30.15 in - SSE 6.9 mph - N/A   Clear
2:00 AM 60.8 °F 51.8 °F 72% 30.15 in - South 4.6 mph - N/A   Clear
3:00 AM 59.0 °F 50.0 °F 72% 30.15 in - SSE 3.5 mph - N/A   Clear
4:00 AM 58 °F 50 °F 66% 30.17 in 6 mi 2.3 mph - -  
4:00 AM 59.0 °F 50.0 °F 72% 30.15 in - Variable 2.3 mph - N/A   Clear
5:00 AM 57.2 °F 50.0 °F 77% 30.15 in - South 4.6 mph - N/A   Clear
6:00 AM 57.2 °F 50.0 °F 77% 30.18 in - South 4.6 mph - N/A   Clear
7:00 AM 57 °F 49 °F 68% 30.20 in 6 mi 3.5 mph - -  
7:00 AM 57.2 °F 50.0 °F 77% 30.18 in - SSE 3.5 mph - N/A   Clear
8:00 AM 59.0 °F 50.0 °F 72% 30.18 in 5.0 mi SE 3.5 mph - N/A   Unknown
9:00 AM 60.8 °F 51.8 °F 72% 30.21 in 5.0 mi South 5.8 mph - N/A   Unknown
10:00 AM 65 °F 52 °F 53% 30.23 in 6 mi South 6.9 mph - -  
10:00 AM 64.4 °F 51.8 °F 64% 30.21 in - South 6.9 mph - N/A   Clear
11:00 AM 68.0 °F 51.8 °F 56% 30.21 in - West 4.6 mph - N/A   Clear
12:00 PM 69.8 °F 46.4 °F 43% 30.21 in - Variable 6.9 mph - N/A   Clear
1:00 PM 70 °F 51 °F 40% 30.18 in 6 mi NW 10.4 mph - -   Scattered Clouds
1:00 PM 69.8 °F 50.0 °F 49% 30.18 in 6.2 mi NW 10.4 mph - N/A   Partly Cloudy
2:00 PM 69.8 °F 51.8 °F 53% 30.15 in 6.2 mi NW 10.4 mph - N/A   Scattered Clouds
3:00 PM 69.8 °F 51.8 °F 53% 30.15 in 6.2 mi NNW 9.2 mph - N/A   Scattered Clouds
4:00 PM 69 °F 50 °F 40% 30.15 in 6 mi NNW 9.2 mph - -   Partly Cloudy
4:00 PM 69.8 °F 50.0 °F 49% 30.12 in 6.2 mi NNW 9.2 mph - N/A   Scattered Clouds
5:00 PM 68.0 °F 51.8 °F 56% 30.15 in 6.2 mi NW 10.4 mph - N/A   Partly Cloudy
6:00 PM 68.0 °F 51.8 °F 56% 30.15 in 6.2 mi NNW 6.9 mph - N/A   Partly Cloudy
7:00 PM 67 °F 51 °F 47% 30.19 in 6 mi NW 3.5 mph - -  
7:00 PM 68.0 °F 51.8 °F 56% 30.18 in - NW 3.5 mph - N/A   Clear
8:00 PM 68.0 °F 51.8 °F 56% 30.18 in - NNW 4.6 mph - N/A   Clear
9:00 PM 66.2 °F 51.8 °F 60% 30.18 in - SW 3.5 mph - N/A   Clear
10:00 PM 66 °F 51 °F 48% 30.19 in 6 mi WSW 3.5 mph - -   Partly Cloudy
10:00 PM 66.2 °F 51.8 °F 60% 30.18 in - WSW 3.5 mph - N/A   Clear
11:00 PM 66.2 °F 51.8 °F 60% 30.15 in - SW 3.5 mph - N/A   Clear